NOAA 16 DEB, 41077

Orbit data source: Space-Track

NOAA 16 DEB, 41077 is space debris in SSO originally from a launch on Thu, 21 Sep 2000 UTC launched from the Air Force Western Test Range (AFWTR). Debris objects in space refer to the collection of defunct objects orbiting the Earth. Examples of debris include non-operational satellites, rocket bodies, and fragments generated from explosions, collisions, or faulty payload assembly.

Loading next visibility...
Identifier
41077, 2000-055AL
Orbit
SSO
Country
Flag of USUS
Related business
Manufacturer
Unknown
Mission
Spacecraft
Bus & Motor
Unknown
Mass
Unknown
Launch date (UTC)
2000-09-21 (25 years ago)
Launch vehicle
Unknown
Launch site
Air Force Western Test Range (AFWTR)
Object type
Payload
Rocket body
Debris
Shape & HBR
Unknown shape, 0.1 m
Radar Cross Section
Small (<0.1 m²)

Expand to show TLE details & history
Last TLE update: 13 hours ago

TLE from 13 hours ago
0 NOAA 16 DEB
1 41077U 00055AL  25301.33791308  .00000904  00000-0  68157-3 0  9997
2 41077  98.8181 318.7687 0114386 103.9792 257.4120 13.93615541503940
Epoch: 2025-10-28T08:06Z
TLE epoch observation values (Epoch: 2025-10-28T08:06:35.690Z)
Latitude
0.00003°
Longitude
160.19315°
Altitude
937.956 km
Speed
7.373 km/s
True Right ascension
21h 15m 04s
True Declination
0° 00' 00"
Sunlit
Object was in daylight at epoch
Visualization orbit readout
Latitude
Unknown
Longitude
Unknown
Altitude
Unknown
Speed
Unknown
Apparent Right ascension
Unknown
Apparent Declination
Unknown
Sunlit
N/A
Visualization observer readout
Local Sidereal Time
16:41:42
Azimuth
Unknown
Elevation
Unknown
Doppler factor
Unknown
Orbital elements
Apogee altitude
996.589 km
Perigee altitude
829.784 km
Semi-major axis
7,291.323 km
Eccentricity
0.01144
Inclination
98.8181°
RAAN
318.7687°
Arg. of periapsis
103.9792°
True anomaly
256.13682°
Mean anomaly
257.412°
Eccentric anomaly
256.774°
Mean motion
3.48605 °/min
Orbital period
103.27 mins
BSTAR
0.00068157
Loading maneuver chart data...
Computing Atmospheric mass density...
Loading historical data...
Loading historical data...
Loading historical data...
Loading historical data...
Loading historical data...
Loading historical data...
Loading historical data...

Documentation

Showing up to 5 results
|